This demonstration page uses our WeatherBlox Daily Observations layout. Learn more.

Left ArrowRight Arrow

Hourly Observations for February 13, 2016

Temp ( °F °C ) Dew Point ( °F °C ) Humidity (%) Winds ( mph kmh ) Pressure ( in mb ) Visibility ( mi km ) Precip ( " mm )
12:58 am 00:58 Cloudy 13 -10.4 0 -17.9 54 54 NNE 7 11 30.70 1040 10 16 0.00 0.00
1:58 am 01:58 Mostly Cloudy 12 -11 1 -17.4 60 60 NE 9 15 30.70 1040 10 16 0.00 0.00
2:58 am 02:58 Cloudy 10 -12 -2 -18.7 58 58 NE 8 13 30.69 1039 10 16 0.00 0.00
3:58 am 03:58 Cloudy 10 -12.1 -1 -18.4 60 60 ENE 6 9 30.69 1039 10 16 0.00 0.00
4:58 am 04:58 Cloudy 10 -12.2 -1 -18.3 61 61 E 3 6 30.68 1039 10 16 0.00 0.00
5:58 am 05:58 Cloudy 10 -12 0 -17.8 62 62 ESE 5 7 30.69 1039 10 16 0.00 0.00
6:58 am 06:58 Cloudy 11 -11.9 1 -17.5 63 63 E 5 7 30.68 1039 10 16 0.00 0.00
7:58 am 07:58 Cloudy 10 -12 1 -17 67 67 E 8 13 30.67 1039 10 16 0.00 0.00
8:58 am 08:58 Cloudy 12 -11.2 2 -16.6 65 65 E 8 13 30.66 1038 10 16 0.00 0.00
9:58 am 09:58 Cloudy 13 -10.3 3 -16.3 62 62 E 8 13 30.64 1038 10 16 0.00 0.00
10:58 am 10:58 Cloudy 15 -9.7 3 -16.1 60 60 ESE 10 17 30.63 1037 10 16 0.00 0.00
11:58 am 11:58 Cloudy 15 -9.2 2 -16.6 55 55 ESE 12 19 30.59 1036 10 16 0.00 0.00
12:58 pm 12:58 Cloudy 17 -8.5 4 -15.7 56 56 E 9 15 30.54 1034 10 16 0.00 0.00
1:58 pm 13:58 Cloudy 18 -7.8 3 -15.9 53 53 ESE 12 19 30.49 1033 10 16 0.00 0.00
2:58 pm 14:58 Cloudy 19 -7.5 3 -16.3 50 50 ESE 14 22 30.45 1031 10 16 0.00 0.00
3:58 pm 15:58 Cloudy 19 -7.3 2 -16.5 48 48 E 14 22 30.41 1030 10 16 0.00 0.00
4:58 pm 16:58 Cloudy 19 -7.2 3 -16.1 49 49 ESE 13 20 30.39 1029 10 16 0.00 0.00
5:58 pm 17:58 Cloudy 19 -7.4 2 -16.6 48 48 ESE 17 28 30.36 1028 10 16 0.00 0.00
6:58 pm 18:58 Cloudy 19 -7.4 2 -16.9 47 47 ESE 15 24 30.34 1028 10 16 0.00 0.00
7:58 pm 19:58 Cloudy 19 -7.4 2 -16.5 49 49 ESE 15 24 30.32 1027 10 16 0.00 0.00
8:58 pm 20:58 Cloudy 19 -7.2 3 -16 50 50 ESE 16 26 30.30 1026 10 16 0.00 0.00
9:58 pm 21:58 Cloudy 19 -7.2 3 -16.1 49 49 ESE 15 24 30.27 1025 10 16 0.00 0.00
10:58 pm 22:58 Cloudy 19 -7 3 -16.1 49 49 ESE 18 30 30.24 1024 10 16 0.00 0.00
11:58 pm 23:58 Cloudy 20 -6.9 3 -16.2 48 48 ESE 17 28 30.21 1023 10 16 0.00 0.00

Powered by AerisWeather